YN1JLX-13 Weather Reports


Display with metric or nautical units.
time (UTC)temp
F
wind
direction
speed
MPH
gust
MPH
rain 1hr
in
rain 24hr
in
rain mn
in
humidity
%
barometer
mb
20260504150413 73 65 13.0 20.0 0.00 0.00 0.00 70 1012.0
20260504140411 70 71 14.0 23.0 0.00 0.00 0.00 69 1012.0
20260504130409 66 74 13.0 26.0 0.00 0.00 0.00 77 1012.0
20260504110405 65 73 9.0 25.0 0.00 0.00 0.00 73 1011.0
20260504100403 64 73 8.0 25.0 0.00 0.00 0.00 73 1011.0
20260504081359 72 79 8.0 22.0 0.00 0.00 0.00 72 1011.0
20260504080358 66 79 8.0 22.0 0.00 0.00 0.00 71 1011.0
20260504070358 67 89 7.0 20.0 0.00 0.00 0.00 69 1012.0
20260504050354 73 107 7.0 18.0 0.00 0.00 0.00 65 1013.0
20260504045353 72 107 7.0 18.0 0.00 0.00 0.00 62 1013.0
20260504044353 73 107 7.0 18.0 0.00 0.00 0.00 61 1013.0
20260504043353 71 113 8.0 17.0 0.00 0.00 0.00 59 1013.0
20260504042353 73 113 8.0 17.0 0.00 0.00 0.00 59 1013.0
20260504041352 72 113 8.0 17.0 0.00 0.00 0.00 54 1013.0
20260504040352 74 113 8.0 17.0 0.00 0.00 0.00 54 1013.0
20260504035351 75 113 8.0 17.0 0.00 0.00 0.00 53 1013.0
20260504034351 75 113 8.0 17.0 0.00 0.00 0.00 53 1013.0
20260504033351 71 124 4.0 15.0 0.00 0.00 0.00 51 1013.0
20260504032351 73 124 4.0 15.0 0.00 0.00 0.00 50 1012.0
20260504031350 72 140 1.0 8.0 0.00 0.00 0.00 50 1012.0
20260504030350 74 140 1.0 8.0 0.00 0.00 0.00 50 1012.0
20260504025350 74 140 1.0 8.0 0.00 0.00 0.00 50 1012.0
20260504024349 75 140 1.0 8.0 0.00 0.00 0.00 50 1012.0
20260504023349 76 140 1.0 8.0 0.00 0.00 0.00 50 1011.0
20260504022349 76 140 1.0 8.0 0.00 0.00 0.00 50 1011.0
20260504021348 77 140 1.0 8.0 0.00 0.00 0.00 50 1011.0
20260504020348 70 140 1.0 8.0 0.00 0.00 0.00 44 1011.0
20260504015348 72 140 1.0 8.0 0.00 0.00 0.00 44 1011.0
20260504014348 71 140 1.0 8.0 0.00 0.00 0.00 45 1011.0
20260504013347 72 140 1.0 8.0 0.00 0.00 0.00 45 1011.0
20260504012347 72 107 1.0 10.0 0.00 0.00 0.00 45 1010.0
20260504011346 74 107 1.0 10.0 0.00 0.00 0.00 45 1010.0
20260504010346 76 107 1.0 10.0 0.00 0.00 0.00 45 1010.0
20260504005346 74 107 1.0 10.0 0.00 0.00 0.00 45 1010.0
20260504004346 76 107 1.0 10.0 0.00 0.00 0.00 45 1009.0
20260504003345 75 124 1.0 8.0 0.00 0.00 0.00 43 1009.0
20260504002345 77 124 1.0 8.0 0.00 0.00 0.00 42 1008.0
20260504001345 79 124 1.0 8.0 0.00 0.00 0.00 42 1008.0
20260504000346 81 124 2.0 9.0 0.00 0.00 0.00 42 1008.0
20260503235344 81 124 2.0 9.0 0.00 0.00 0.00 42 1008.0
20260503234344 78 97 5.0 11.0 0.00 0.00 0.00 41 1008.0
20260503233343 80 97 5.0 11.0 0.00 0.00 0.00 41 1008.0
20260503232343 81 97 5.0 11.0 0.00 0.00 0.00 41 1008.0
20260503231343 79 97 5.0 11.0 0.00 0.00 0.00 40 1008.0
20260503230343 81 97 5.0 11.0 0.00 0.00 0.00 40 1008.0
20260503225342 82 97 5.0 11.0 0.00 0.00 0.00 40 1008.0
20260503224342 80 97 5.0 11.0 0.00 0.00 0.00 40 1008.0
20260503223342 82 97 5.0 11.0 0.00 0.00 0.00 40 1008.0
20260503222341 82 98 6.0 12.0 0.00 0.00 0.00 40 1008.0
20260503221341 82 98 6.0 12.0 0.00 0.00 0.00 39 1008.0
20260503220341 83 98 6.0 12.0 0.00 0.00 0.00 39 1008.0
20260503215340 83 98 6.0 12.0 0.00 0.00 0.00 39 1008.0
20260503214340 83 98 6.0 12.0 0.00 0.00 0.00 39 1008.0
20260503213340 83 98 6.0 12.0 0.00 0.00 0.00 39 1008.0
20260503212339 83 99 5.0 11.0 0.00 0.00 0.00 39 1008.0
20260503211339 82 99 5.0 11.0 0.00 0.00 0.00 39 1008.0
20260503210339 83 99 5.0 11.0 0.00 0.00 0.00 40 1008.0
20260503205339 83 99 5.0 11.0 0.00 0.00 0.00 40 1008.0
20260503204338 85 99 5.0 11.0 0.00 0.00 0.00 40 1008.0
20260503203338 84 104 4.0 10.0 0.00 0.00 0.00 41 1008.0
20260503202338 86 104 4.0 10.0 0.00 0.00 0.00 41 1009.0
20260503201337 85 104 4.0 10.0 0.00 0.00 0.00 42 1009.0
20260503200337 82 104 4.0 10.0 0.00 0.00 0.00 41 1009.0
20260503195337 84 104 4.0 10.0 0.00 0.00 0.00 41 1009.0
20260503194336 86 104 4.0 10.0 0.00 0.00 0.00 41 1009.0
20260503193336 82 104 4.0 10.0 0.00 0.00 0.00 49 1009.0
20260503192336 83 91 5.0 9.0 0.00 0.00 0.00 47 1010.0
20260503191336 83 91 5.0 9.0 0.00 0.00 0.00 46 1010.0
20260503190335 83 91 5.0 9.0 0.00 0.00 0.00 46 1010.0
20260503185335 83 91 5.0 9.0 0.00 0.00 0.00 46 1010.0
20260503184335 82 91 5.0 9.0 0.00 0.00 0.00 46 1011.0
20260503183335 82 91 5.0 9.0 0.00 0.00 0.00 46 1011.0
20260503182334 82 80 7.0 10.0 0.00 0.00 0.00 52 1012.0
20260503181334 80 80 7.0 10.0 0.00 0.00 0.00 52 1012.0
20260503180334 80 80 7.0 10.0 0.00 0.00 0.00 52 1012.0
20260503175333 80 80 7.0 10.0 0.00 0.00 0.00 52 1012.0
20260503174333 80 80 7.0 10.0 0.00 0.00 0.00 52 1012.0
20260503173333 81 80 7.0 10.0 0.00 0.00 0.00 47 1012.0
20260503172333 80 71 9.0 11.0 0.00 0.00 0.00 52 1013.0
20260503171332 80 71 9.0 11.0 0.00 0.00 0.00 55 1013.0
20260503170332 78 71 9.0 11.0 0.00 0.00 0.00 55 1013.0